Location: Krakow
(50.0830°N, 19.9170°E)
Time: 10:40:22
(UTC+02:00)

A-11 Canister half - Pass Details

Date: 15 March 2026
Orbit: 1523 x 1684 km, 47.3° (Epoch: 16 April)

Event Time Altitude Azimuth Distance (km) Brightness Sun altitude
Rises 15:14:15 0° 288° (WNW) 4,777 12.2 22.0°
Reaches altitude 10° 15:17:35 10° 281° (W) 3,769 11.9 21.6°
Maximum altitude 15:26:09 40° 217° (SW) 2,137 11.1 20.4°
Drops below altitude 10° 15:34:31 10° 152° (SSE) 3,684 11.1 19.2°
Sets 15:37:46 0° 145° (SE) 4,660 11.5 18.8°
